Buffalo, NY

4:18 PM EST on November 12, 2019 (GMT -0500)
Buffalo Niagara International

Weather History for KBUF - October, 2019

Change the Weather History Date:

Monday, October 21, 2019

  Actual Average Record
Temperature  
Mean Temperature 56 °F 49 °F  
Max Temperature 71 °F 57 °F 81 °F (1894)
Min Temperature 41 °F 41 °F 27 °F (1952)
Degree Days  
Heating Degree Days 9 16  
Month to date heating degree days 261 266  
Since 1 July heating degree days 306 428  
Cooling Degree Days 0 0  
Month to date cooling degree days 7 0  
Year to date cooling degree days 604 540  
Growing Degree Days 6 (Base 50)    
Moisture  
Dew Point 42 °F    
Average Humidity 65    
Maximum Humidity 93    
Minimum Humidity 36    
Precipitation  
Precipitation T in 0.10 in 1.30 in (2016)
Month to date precipitation 2.67 2.42  
Year to date precipitation 37.32 31.48  
Snow  
Snow 0.00 in 0.00 in 1.50 in (1925)
Month to date snowfall 0.0 0.4  
Since 1 July snowfall 0.0 0.4  
Since 1 September snowfall 0.0 0.4  
Snow Depth 0.00 in    
Sea Level Pressure  
Sea Level Pressure 29.99 in    
Wind  
Wind Speed 9 mph (ESE)    
Max Wind Speed 18 mph    
Max Gust Speed 24 mph    
Visibility 10 miles    
Events      
T = Trace of Precipitation, MM = Missing Value Source: NWS Daily Summary

Daily Weather History Graph

Daily Weather History Graph

Search for Another Location

Airport or City:

Astronomy

Oct. 21, 2019 Rise Set
Actual Time 7:35 AM EDT 6:23 PM EDT
Civil Twilight 7:06 AM EDT 6:51 PM EDT
Nautical Twilight 6:33 AM EDT 7:24 PM EDT
Astronomical Twilight 6:00 AM EDT 7:57 PM EDT
Moon No Moon Rise 2:57 PM EDT (10/21)
Length of Visible Light 11h 45m
Length of Day
10h 47m
Waning Gibbous, 48% of the Moon is Illuminated
Oct 21
Waning Gibbous
Oct 27
New
Nov 4
First Quarter
Nov 12
Full
Nov 19
Last Quarter

Hourly Weather History & Observations

Time (EDT) Temp. Windchill Dew Point Humidity Pressure Visibility Wind Dir Wind Speed Gust Speed Precip Events Conditions
12:54 AM 46.0 °F 44.8 °F 42.1 °F 86% 30.01 in 10.0 mi SE 3.5 mph - N/A   Clear
1:54 AM 45.0 °F 42.6 °F 42.1 °F 90% 30.02 in 10.0 mi ESE 4.6 mph - N/A   Clear
2:54 AM 45.0 °F 43.5 °F 41.0 °F 86% 30.03 in 10.0 mi ESE 3.5 mph - N/A   Clear
3:54 AM 44.1 °F 42.5 °F 41.0 °F 89% 30.04 in 10.0 mi SE 3.5 mph - N/A   Clear
4:54 AM 44.1 °F - 39.9 °F 85% 30.05 in 10.0 mi Calm Calm - N/A   Clear
5:54 AM 41.0 °F 38.0 °F 39.0 °F 93% 30.05 in 10.0 mi ENE 4.6 mph - N/A   Clear
6:54 AM 42.1 °F - 39.9 °F 92% 30.06 in 10.0 mi Calm Calm - N/A   Partly Cloudy
7:54 AM 42.1 °F 40.2 °F 39.9 °F 92% 30.07 in 10.0 mi East 3.5 mph - N/A   Partly Cloudy
8:54 AM 46.9 °F - 43.0 °F 86% 30.09 in 10.0 mi East 4.6 mph - N/A   Partly Cloudy
9:54 AM 53.1 °F - 44.1 °F 71% 30.08 in 10.0 mi ESE 4.6 mph - N/A   Scattered Clouds
10:54 AM 59.0 °F - 46.9 °F 64% 30.06 in 10.0 mi East 9.2 mph - N/A   Mostly Cloudy
11:54 AM 64.0 °F - 43.0 °F 46% 30.01 in 10.0 mi East 15.0 mph - N/A   Scattered Clouds
12:54 PM 66.9 °F - 43.0 °F 42% 30.01 in 10.0 mi East 13.8 mph - N/A   Mostly Cloudy
1:54 PM 69.1 °F - 43.0 °F 39% 29.97 in 10.0 mi East 11.5 mph 18.4 mph N/A   Mostly Cloudy
2:54 PM 70.0 °F - 43.0 °F 38% 29.95 in 10.0 mi ESE 13.8 mph - N/A   Mostly Cloudy
3:54 PM 70.0 °F - 43.0 °F 38% 29.92 in 10.0 mi East 10.4 mph - N/A   Scattered Clouds
4:54 PM 70.0 °F - 41.0 °F 35% 29.92 in 10.0 mi East 16.1 mph - N/A   Mostly Cloudy
5:54 PM 66.0 °F - 42.1 °F 42% 29.92 in 10.0 mi East 9.2 mph - N/A   Mostly Cloudy
6:54 PM 63.0 °F - 43.0 °F 48% 29.89 in 10.0 mi East 11.5 mph - N/A   Overcast
7:54 PM 61.0 °F - 43.0 °F 52% 29.88 in 10.0 mi East 8.1 mph - N/A   Overcast
8:54 PM 60.1 °F - 43.0 °F 53% 29.85 in 10.0 mi ESE 8.1 mph - N/A   Overcast
9:54 PM 63.0 °F - 37.9 °F 40% 29.84 in 10.0 mi SSE 13.8 mph - N/A   Overcast